Location: Kikino
(54.4440°N, 112.0940°W)
Time: 20:03:57
(UTC+00:00)

A-11 Canister half - All Passes

Search period start: 27 May 2024 00:00
Search period end: 06 June 2024 00:00
Orbit: 1514 x 1685 km, 47.2° (Epoch: 27 May)

Date Brightness Start Highest point End Pass type
(mag) Time Alt. Az. Time Alt. Az. Time Alt. Az.
27 May - 07:09:39 10° S 07:16:25 22° SE 07:23:03 10° E visible
27 May - 09:10:40 10° SW 09:19:32 45° SSE 09:28:11 10° E visible
27 May - 11:14:18 10° WSW 11:23:25 56° S 11:32:22 10° ESE daylight
27 May - 13:18:41 10° W 13:27:13 42° SSW 13:35:39 10° SE daylight
27 May - 15:24:19 10° W 15:30:05 18° SW 15:35:50 10° S daylight
28 May - 06:47:01 10° S 06:53:34 21° SE 06:59:59 10° E visible
28 May - 08:47:46 10° SW 08:56:37 44° SSE 09:05:14 10° E visible
28 May - 10:51:21 10° WSW 11:00:30 57° S 11:09:27 10° ESE daylight
28 May - 12:55:43 10° W 13:04:19 43° SSW 13:12:49 10° SE daylight
28 May - 15:01:12 10° W 15:07:15 20° SW 15:13:16 10° S daylight
29 May - 06:24:23 10° S 06:30:42 20° SE 06:36:54 10° E visible
29 May - 08:24:54 10° SW 08:33:43 43° SSE 08:42:18 10° E visible
29 May - 10:28:23 10° WSW 10:37:34 57° S 10:46:31 10° ESE daylight
29 May - 12:32:44 10° W 12:41:25 44° SSW 12:49:58 10° SE daylight
29 May - 14:38:05 10° W 14:44:24 21° SW 14:50:42 10° S daylight
30 May - 06:01:49 10° S 06:07:52 19° SE 06:13:47 10° E visible
30 May - 08:02:00 10° SW 08:10:48 42° SSE 08:19:21 10° E visible
30 May - 10:05:25 10° WSW 10:14:38 56° S 10:23:37 10° ESE visible
30 May - 12:09:46 10° W 12:18:31 46° SSW 12:27:07 10° SE daylight
30 May - 14:15:00 10° W 14:21:33 22° SW 14:28:06 10° S daylight
31 May - 05:39:15 10° SSE 05:45:00 18° SE 05:50:39 10° E visible
31 May - 07:39:08 10° SW 07:47:54 41° SSE 07:56:24 10° E visible
31 May - 09:42:28 10° WSW 09:51:42 56° S 10:00:41 10° ESE visible
31 May - 11:46:47 10° W 11:55:36 47° SSW 12:04:15 10° SE daylight
31 May - 13:51:55 10° W 13:58:43 23° SW 14:05:27 10° S daylight
01 Jun - 05:16:45 10° SSE 05:22:09 16° SE 05:27:29 10° E visible
01 Jun - 07:16:17 10° SW 07:24:59 39° SSE 07:33:26 10° E visible
01 Jun - 09:19:30 10° WSW 09:28:46 56° S 09:37:45 10° E visible
01 Jun - 11:23:48 10° W 11:32:42 48° SSW 11:41:24 10° SE daylight
01 Jun - 13:28:51 10° W 13:35:52 25° SW 13:42:49 10° S daylight
02 Jun - 04:54:17 10° SSE 04:59:19 15° SE 05:04:16 10° E visible
02 Jun - 06:53:25 10° SSW 07:02:05 38° SSE 07:10:28 10° E visible
02 Jun - 08:56:33 10° WSW 09:05:50 56° S 09:14:50 10° E visible
02 Jun - 11:00:50 10° W 11:09:47 49° SSW 11:18:31 10° SE daylight
02 Jun - 13:05:48 10° W 13:13:01 26° SW 13:20:09 10° S daylight
03 Jun - 04:31:52 10° SSE 04:36:29 14° SE 04:41:01 10° E daylight
03 Jun - 06:30:35 10° SSW 06:39:11 37° SSE 06:47:31 10° E visible
03 Jun - 08:33:36 10° WSW 08:42:54 55° S 08:51:54 10° E visible
03 Jun - 10:37:51 10° W 10:46:52 50° SSW 10:55:39 10° SE daylight
03 Jun - 12:42:45 10° W 12:50:09 27° SW 12:57:27 10° SSE daylight
04 Jun - 04:09:33 10° SSE 04:13:38 13° SE 04:17:41 10° ESE daylight
04 Jun - 06:07:45 10° SSW 06:16:16 36° SSE 06:24:33 10° E visible
04 Jun - 08:10:39 10° WSW 08:19:57 55° S 08:28:58 10° E visible
04 Jun - 10:14:52 10° W 10:23:57 51° SSW 10:32:46 10° ESE daylight
04 Jun - 12:19:43 10° W 12:27:18 29° SW 12:34:45 10° SSE daylight
05 Jun - 03:47:21 10° SSE 03:50:49 12° SE 03:54:14 10° ESE daylight
05 Jun - 05:44:55 10° SSW 05:53:22 34° SSE 06:01:35 10° E visible
05 Jun - 07:47:41 10° WSW 07:57:01 54° S 08:06:03 10° E visible
05 Jun - 09:51:53 10° W 10:01:01 52° SSW 10:09:54 10° ESE visible
05 Jun - 11:56:41 10° W 12:04:26 30° SW 12:12:02 10° SSE daylight
